Powrót do katalogu

CZ-6A DEB

AktywnySSO
NORAD 54407·DEBRIS·🇨🇳 China

Wystrzelony Nov 11, 2022 z Taiyuan Satellite Launch Center

Loading…

Następne Przeloty (najbliższe 24 godziny)

TLE

ŚwieżeSource: Space-Track

Epoka: Sep 13, 2026, 23:39 UTC

1 54407U 22151EF  26256.98542438  .00001394  00000-0  64524-3 0  9996
2 54407  98.7732 264.1670 0044385  74.3917 286.2152 14.21940796198310

Śledź CZ-6A DEB w czasie rzeczywistym z AllMySat

Download on the App Store